Location: Newark
(15.4211°N, 108.6697°E)
Time: 01:59:30
(UTC+00:00)

Starlink Launch 2 leader - Visible Passes

Search period start: 16 December 2019 00:00
Search period end: 26 December 2019 00:00
Orbit: 279 x 281 km, 53.0° (Epoch: 13 November)

Date Brightness Start Highest point End Pass type
(mag) Time Alt. Az. Time Alt. Az. Time Alt. Az.
16 Dec 3.2 10:58:40 10° SSW 11:00:55 32° SE 11:02:07 20° ENE visible
16 Dec 4.2 22:08:39 17° SW 22:08:39 17° SW 22:10:13 10° SSW visible
17 Dec 2.6 11:00:22 10° SW 11:02:47 61° NW 11:04:40 15° NNE visible
18 Dec 4.7 11:02:52 10° W 11:04:42 19° NW 11:06:33 10° N visible
